Satellite: AO-40 Catalog number: 26609 Epoch time: 02273.57490741 Element set: 268 Inclination: 7.6479 deg RA of node: 91.1299 deg Eccentricity: 0.7931091 Arg of perigee: 95.3859 deg Mean anomaly: 349.2157 deg Mean motion: 1.25598589 rev/day Decay rate: -3.89000e-06 rev/day^2 Epoch rev: 881 Checksum: 358